{"data":{"norad_id":53014,"intl_designator":"2022-076AE","name":"STARLINK-4183","alt_names":[],"object_type":"PAYLOAD","status":"ACTIVE","operator":null,"country":"US","launch_date":"2022-07-07","launch_site_code":"AFETR","launch_vehicle":null,"mission":null,"orbit_class":"UNKNOWN","rcs_meters":null,"size_class":null,"mass_kg":null,"dimensions":null,"purposes":["comms"],"wikipedia_slug":null,"has_3d_model":false,"image_url":null,"decayed_at":null,"tle_current":{"epoch":"2026-05-25T03:35:38.037120Z","epoch_age_seconds":61403,"freshness":"FRESH","line1":"1 53014U 22076AE  26145.14974580  .00000252  00000+0  33931-4 0  9997","line2":"2 53014  53.2147 100.8759 0001464  83.4321 276.6837 15.08842199214523","mean_motion":15.08842199,"eccentricity":0.0001464,"inclination_deg":53.2147,"raan_deg":100.8759,"arg_perigee_deg":83.4321,"mean_anomaly_deg":276.6837,"bstar":3.3931e-5,"rev_number":21452,"period_min":95.437415586227,"perigee_km":538.72389080407,"apogee_km":540.74944421391,"semimajor_km":6917.873667509,"source":"CELESTRAK","updated_at":"2026-05-25T13:38:17.279609Z"}}}